Regional Weather Roundup
Issued by NWS

Home | Current Version | Previous Version | Text Only | Print | Product List | Glossary On
Versions: 1 2 3 4 5 6 7 8 9 10 11 12 13 14 15 16 17 18 19 20 21 22 23 24 25 26 27 28 29 30 31 32 33 34 35 36 37 38 39 40 41 42 43 44 45 46 47 48 49 50
000
ASUS43 KLMK 042210
RWRKY
KENTUCKY REGIONAL WEATHER ROUNDUP
NATIONAL WEATHER SERVICE LOUISVILLE KY
600 PM EDT MON MAY 04 2015

NOTE "FAIR" INDICATES FEW OR NO CLOUDS BELOW 12,000 FEET
WITH NO SIGNIFICANT WEATHER AND/OR OBSTRUCTIONS TO VISIBILITY.

KYZ001>023-026-027-061>063-070>075-042300-
WESTERN AND SOUTH CENTRAL KENTUCKY

CITY           SKY/WX    TMP DP  RH WIND       PRES   REMARKS
PADUCAH        SUNNY     83  55  38 SW10      30.12F
HENDERSON      PTSUNNY   82  54  36 S13       30.12F
OWENSBORO      PTSUNNY   80  59  48 SW13      30.15S
HOPKINSVILLE   MOSUNNY   81  56  42 SW10      30.17S
BOWLING GREEN  PTSUNNY   82  56  40 S8        30.18S
GLASGOW        MOSUNNY   81  54  39 SW8       30.19S
$$

KYZ024-025-028>034-038-045-046-053-042300-
NORTH CENTRAL KENTUCKY

CITY           SKY/WX    TMP DP  RH WIND       PRES   REMARKS
LOUISVILLE/SDF PTSUNNY   82  53  36 S14       30.15S
LOUISVILLE/LOU PTSUNNY   81  54  39 SW10      30.16S
FORT KNOX      PTSUNNY   81  57  43 SW10      30.15S
$$

KYZ035>037-039>044-047>052-055>060-089>105-042300-
NORTHEAST KENTUCKY

CITY           SKY/WX    TMP DP  RH WIND       PRES   REMARKS
LEXINGTON      MOSUNNY   79  54  41 SW10      30.19S
COVINGTON      CLOUDY    80  57  45 VRB6      30.16S
FRANKFORT      MOSUNNY   79  55  43 SW9       30.17R
$$

KYZ054-064>069-076>088-106>120-042300-
SOUTHEAST KENTUCKY

CITY           SKY/WX    TMP DP  RH WIND       PRES   REMARKS
JACKSON        MOSUNNY   81  47  30 VRB3      30.22S
LONDON         PTSUNNY   82  43  25 S6        30.21S
SOMERSET       SUNNY     79  46  31 W8        30.22S
MIDDLESBORO    SUNNY     79  50  35 S7        30.23S
MONTICELLO     CLEAR     81  51  35 SW7       30.24F
$$




USA.gov is the U.S. government's official web portal to all federal, state and local government web resources and services.